Flag for U.S.A. Weather past 2 weeks in Fort Bragg, California, U.S.A.

Now
69 °F

Light rain. Sunny.


Feels Like: 69 °F
Forecast: 48 / 60 °F
Wind: 12 mph from Northwest

Location: Ukiah Municipal


UV Index: 5 (Moderate)

Visibility: 10 mi


Pressure: 30.05 "Hg

Humidity: 47%

Dew point: 48 °F

Location of Fort BraggLocation

Historic Weather in Fort Bragg

°F

Fort Bragg temperature yesterday

Maximum temperature yesterday: 80 °F (at 3:56 PM)
Minimum temperature yesterday: 46 °F (at 5:56 AM)
Average temperature yesterday: 60 °F

Past Weeks' High & Low Weather Summary

 TemperatureHumidityPressure
High86 °F (Apr 10, 3:56 PM)93% (Apr 5, 3:56 AM)30.27 "Hg (Apr 5, 3:56 AM)
Low41 °F (Apr 5, 6:56 AM)12% (Apr 18, 4:56 PM)29.78 "Hg (Apr 11, 5:56 PM)
Average61 °F59%29.98 "Hg
* Reported Apr 4 3:56 PM — Apr 19 3:56 PM, Fort Bragg, Weather by CustomWeather, © 2014

Note: Actual official high and low records may vary slightly from our data, if they occured in-between our weather recording intervals... More about our weather records

Advertising

Historic Weather Conditions — Data for Previous 24 hours

 ConditionsComfort  
Time TempWeatherWind HumidityBarometerVisibility
3:56 PM
Apr 19
71 °FLight rain. Sunny.15 mph44%30.05 "Hg10 mi
2:56 PM71 °FLight rain. Sunny.12 mph41%30.06 "Hg10 mi
1:56 PM70 °FLight rain. Sunny.13 mph39%30.06 "Hg10 mi
12:56 PM69 °FLight rain. Sunny.9 mph38%30.06 "Hg10 mi
11:56 AM68 °FLight rain. Sunny.18 mph33%30.05 "Hg10 mi
10:56 AM64 °FSunny.3 mph37%30.03 "Hg10 mi
9:56 AM59 °FSunny.3 mph49%30.01 "Hg10 mi
8:56 AM51 °FSunny.No wind69%30.02 "Hg10 mi
7:56 AM47 °FSunny.3 mph77%30.02 "Hg10 mi
6:56 AM41 °FClear.No wind86%29.99 "Hg10 mi
5:56 AM43 °FClear.No wind82%29.97 "Hg10 mi
4:56 AM44 °FClear.3 mph79%29.96 "Hg10 mi
3:56 AM45 °FClear.No wind80%29.95 "Hg10 mi
2:56 AM48 °FClear.No wind71%29.94 "Hg10 mi
1:56 AM50 °FClear.No wind68%29.92 "Hg10 mi
12:56 AM50 °FClear.No wind71%29.92 "Hg10 mi
11:56 PM
Apr 18
50 °FClear.No wind71%29.91 "Hg10 mi
10:56 PM54 °FClear.3 mph53%29.91 "Hg10 mi
9:56 PM56 °FClear.3 mph47%29.91 "Hg10 mi
8:56 PM59 °FClear.No wind44%29.90 "Hg10 mi
7:56 PM64 °FSunny.8 mph37%29.88 "Hg10 mi
6:56 PM68 °FSunny.14 mph30%29.86 "Hg10 mi
5:56 PM74 °FSunny.8 mph19%29.85 "Hg10 mi
Weather by CustomWeather, © 2014

See weather overview